Regional Weather Roundup
Issued by NWS Sterling, VA

Home | Current Version | Previous Version | Graphics & Text | Print | Product List | Glossary On
Versions: 1 2 3 4 5 6 7 8 9 10 11 12 13 14 15 16 17 18 19 20 21 22 23 24 25 26 27 28 29 30 31 32 33 34 35 36 37 38 39 40 41 42 43 44 45 46 47 48 49 50
000
ASUS41 KLWX 250010
RWRLWX

REGIONAL WEATHER ROUNDUP
NATIONAL WEATHER SERVICE BALTIMORE MD/WASHINGTON DC
800 PM EDT SUN MAY 24 2015

Note: "FAIR" indicates few or no clouds below 12,000 feet
with no significant weather and/or obstructions to visibility.
 TC=TEMPERATURE CELSIUS

 * =Non NWS site. Station does not report precipitation (e.g. rain,
    snow, etc.), thunder, or fog.

DCZ001-MDZ009-015-VAZ040>042-051-053>054-250100-
WASHINGTON METRO

CITY           SKY/WX    TMP DP  RH WIND       PRES   REMARKS
WASHINGTON NAT PTCLDY    77  61  57 S7        30.25S
DULLES         PTCLDY    76  55  48 S3        30.25R
ANDREWS AFB    PTCLDY    75  58  56 S8        30.25S
FT BELVOIR     PTCLDY    76  58  53 SE3       30.25R
QUANTICO       CLEAR     79  55  43 SW6       30.26R
COLLEGE PARK*  CLEAR     81  52  36 S3        30.25S
LEESBURG*      PTCLDY    79  57  47 S5        30.26S
MANASSAS*      PTCLDY    79  57  47 S6        30.25R
GAITHERSBURG*  PTCLDY    77  52  41 CALM      30.29S

$$

MDZ006>007-011-014-250100-
BALTIMORE METRO

CITY           SKY/WX    TMP DP  RH WIND       PRES   REMARKS
BWI AIRPORT    PTCLDY    73  58  59 SE9       30.25S
MD SCIENCE CTR   N/A     75  58  55 MISG      30.26R
ANNAPOLIS      CLEAR     70  59  68 S10       30.26S
FORT MEADE*    CLEAR     72  59  64 SE6       30.28R

$$

MDZ012-015-019>023-250100-
MARYLAND EASTERN SHORE

CITY           SKY/WX    TMP DP  RH WIND       PRES   REMARKS
OCEAN CITY     CLEAR     65  52  62 VRB6      30.32R
SALISBURY      CLEAR     68  51  54 S5        30.30R
BAY BRIDGE AP*   N/A    N/A N/A N/A S8        30.27S
CAMBRIDGE*     CLEAR     72  54  53 S6        30.28S
EASTON*        CLEAR     75  59  57 S9        30.32R

$$

MDZ017>025-250100-
SOUTHERN MARYLAND

CITY           SKY/WX    TMP DP  RH WIND       PRES   REMARKS
PATUXENT RIVER CLEAR     72  57  59 S8        30.27S
ST INIGOES     CLEAR     71  58  63 SE10      30.27S
LEONARDTOWN*   CLEAR     70  57  64 SE7       30.29S

$$

MDZ003>005-250100-
NORTH CENTRAL MARYLAND

CITY           SKY/WX    TMP DP  RH WIND       PRES   REMARKS
FREDERICK*     CLEAR     75  48  38 CALM      30.27S
HAGERSTOWN APT PTCLDY    79  41  25 S7        30.24S
WESTMINSTER*   PTCLDY    79  37  22 S5        30.26F

$$

MDZ501>502-250100-
WESTERN MARYLAND

CITY           SKY/WX    TMP DP  RH WIND       PRES   REMARKS
OAKLAND*       PTCLDY    68  50  52 SE3       30.31S
CUMBERLAND*    PTCLDY    79  46  31 CALM      30.26S

$$

VAZ025>031-250100-
SHENANDOAH VALLEY

CITY           SKY/WX    TMP DP  RH WIND       PRES   REMARKS
WINCHESTER*    PTCLDY    77  50  38 SE5       30.24S
FRONT ROYAL*   FAIR      73  54  49 CALM      30.23S
LURAY*         FAIR      79  55  44 SW5       30.25R
NEW MARKET*    FAIR      76  53  44 S3        30.23R
STAUNTON*      CLEAR     75  51  42 S7        30.28S
WAYNESBORO*    FAIR      73  52  48 S7        30.29R

$$

WVZ021-048>050-054>055-250100-
EASTERN WEST VIRGINIA PANHANDLE

CITY           SKY/WX    TMP DP  RH WIND       PRES   REMARKS
MARTINSBURG    PTCLDY    76  53  44 CALM      30.24S
PETERSBURG*    MOCLDY    71  57  61 CALM      30.23S

$$

VAZ036>039-050-250100-
CENTRAL FOOTHILLS

CITY           SKY/WX    TMP DP  RH WIND       PRES   REMARKS
CHARLOTTESVILL CLEAR     74  54  49 S10       30.26R
CULPEPER*      PTCLDY    77  55  47 S6        30.26R
ORANGE*        CLEAR     77  55  47 CALM      30.28R
GORDONSVILLE*  FAIR      75  55  50 S7        30.26R
WARRENTON*     FAIR      77  58  52 S6        30.25S

$$

VAZ055>057-250100-
NORTH AND CENTRAL PIEDMONT

CITY           SKY/WX    TMP DP  RH WIND       PRES   REMARKS
FREDERICKSBRG* CLEAR     80  58  46 S7        30.25S
STAFFORD*      CLEAR     77  53  43 S3        30.29S

$$

NCZ024-NYZ072-PAZ021-071-VAZ022-071-250100-
OTHER REGIONAL OBSERVATIONS

CITY           SKY/WX    TMP DP  RH WIND       PRES   REMARKS
NEW YORK CITY  PTCLDY    71  50  47 CALM      30.26R
PHILADELPHIA   PTCLDY    77  41  27 SW9       30.26R
PITTSBURGH     MOCLDY    77  44  30 S5        30.21F
ROANOKE        PTCLDY    76  51  41 S10       30.30S
RICHMOND       PTCLDY    75  57  53 S7        30.28S
RALEIGH        PTCLDY    76  54  46 S6        30.31R

$$

ANZ530>537-250100-
MARINE OBSERVATIONS

STATION/POSITION TIME  TEMP    WIND        PRES
                       AIR SEA DIR/SP/G
                 (UTC) (F)     (DEG/KT/KT) (MB)
THOMAS PT LIGHT  0000   70 66  160/ 14/ 15 1025.3R
BALT KEY BRIDGE  2300   74     140/ 13/ 14 1023.9F
LEWISETTA        2300   73 71              1025.0R
SOLOMONS ISLAND  2300      70                N/A
PINEY POINT      2300          170/ 14/ 16   N/A

$$



USA.gov is the U.S. government's official web portal to all federal, state and local government web resources and services.